Погода Верхняя Гутара

Погода Верхняя Гутара : погода сейчас, прогноз погоды и архив. Всё, что Вы хотите узнать о погоде Верхняя Гутара!

Поиск расширенной информации на нашем сайте:

Другие новости

Новости СМИ2

Главная страница сайта

Новости сайта

03.07.2017

Напоминаем, что на нашем специализированном сайте Метеоцентр.Азия вы можете получить высокодетализированные автоматические прогнозы погоды по пунктам России, СНГ и мира в авиационном формате (включающие направление и скорость ветра, видимость, явления погоды, количество и форму облачности, нижнюю и верхнюю границу облачности).


Погода Верхняя Гутара - сегодня

Время (UTC), дата Ветер
(°,м/с) 
Видим.   Явления Облачность Т
(°С)
Тd
(°С)
f(%) Тe
(°С)
Pmin
(гПа)
dP
(гПа)
Po
(мм)
O2
(г/м3)
Тmin Tmax R s Состояние
почвы
03 16.04.18 тихо ()   20000 м    3/0 средняя 
[Ac lent]
+5 -8.3 38 +5  1009.4  -1.7             
06 16.04.18 160 (Ю) 20000 м    4/3 1000 м средняя, верхняя 
[Sc|Ac lent|Ci fib]
+7.7 -10.3 27 +8  1007.2  -0.9             
09 16.04.18 160 (Ю) 20000 м    ясно 
+9.5 -9.7 25 +11  1005.2  -1.1             
12 16.04.18 тихо ()   20000 м    10/3 1000 м средняя, верхняя 
[Sc|Ac trans|Ci fib]
+5.5 -8.9 35 +6  1005  -1.6      +9.9       
15 16.04.18 тихо ()   20000 м    10/4 600 м кучево-дожд., средняя 
[Cb cap|As trans]
+1.2 -7.1 54 +1  1006.4  -0.4             
18 16.04.18 тихо ()   20000 м    10/0 средняя, верхняя 
[Ac trans|Ci fib]
-2.5 -6.3 75 -3  1007.1  -0.9             
00 17.04.18 тихо ()   20000 м    6/4 600 м кучево-дожд., верхняя 
[Cb cap|Ci fib]
-1.1 -3.6 83 -1  1008.7  1.4    -2.8      мокрый или
старый снег
10-40% 
03 17.04.18 140 (ЮВ) 20000 м    10/5 600 м кучево-дожд., верхняя 
[Cb cap|Ci fib]
+7.1 -4.1 45 +6  1006.7  0.4             
06 17.04.18 140 (ЮВ) 20000 м    10/4 600 м кучево-дожд., верхняя 
[Cb cap|Ci fib]
+7.5 -3.6 45 +7  1006.8  1.2             
09 17.04.18 230 (ЮЗ) 20000 м    10/8 600 м кучево-дожд., верхняя 
[Cb cap|Ci fib]
+7.7 -2.6 48 +9  1005.6  -1             
12 17.04.18 270 (З) 20000 м    10/8 600 м кучево-дожд., верхняя 
[Cb cap|Ci fib]
+5.8 -3.6 51 +7  1006.1  -0.2      +9.4       
15 17.04.18 тихо ()   4000 м  слаб. ливневой дождь  10/10 600 м кучево-дожд. 
[Cb cap]
+2.9 +0.2 82 +3  1007.1  -0.2             
18 17.04.18 тихо ()   4000 м  осадки на расстоянии{ливн. осадки}  10/6 600 м кучево-дожд., средняя 
[Cb cap|As trans]
+0.1 -0.8 94 1007.8  -0.9             
21 17.04.18 тихо ()   20000 м  ливневой снег  10/10 600 м кучево-дожд. 
[Cb cap]
-1.2 -1.9 95 -1  1009.8  1.2             
00 18.04.18 360 (С) 4000 м  слаб. ливневой снег  10/10 600 м кучево-дожд. 
[Cb cap]
-3.4 -7.3 74 -6  1013.5  2.4    -3.4    неравномерный
сухой снег
100% 
06 18.04.18 050 (СВ) 20000 м    10/8 600 м кучево-дожд., верхняя 
[Cb cap|Ci fib]
+0.4 -6.6 59 +1  1012.6  -0.1             
09 18.04.18 320 (СЗ) 20000 м    9/8 600 м кучево-дожд., верхняя 
[Cb cap|Ci fib]
+1.4 -9.1 45 +2  1013.1  0.7             
12 18.04.18 020 (С) 20000 м    8/8 600 м кучево-дожд. 
[Cb cap]
+0.4 -8.8 50 1014.5  0.8      +3.1  0.0     
15 18.04.18 тихо ()   20000 м    10/4 600 м кучево-дожд., верхняя 
[Cb cap|Ci fib]
-3.1 -8.3 67 -3  1017.5  1.3             
18 18.04.18 тихо ()   4000 м  слаб. ливневой снег  10/10 600 м кучево-дожд. 
[Cb cap]
-4 -7.3 78 -4  1019.1  1.1  676  277           
21 18.04.18 тихо ()   20000 м  {ливн. осадки}  10/4 600 м кучево-дожд., верхняя 
[Cb cap|Ci fib]
-5.5 -9.3 75 -6  1020.6  0.6  676  279           
00 19.04.18 тихо ()   20000 м    10/3 600 м кучево-дожд., верхняя 
[Cb cap|Ci fib]
-7.8 -11.4 75 -8  1022.9  677  282  -8.5    0.2  <0.5  неравномерный
сухой снег
100% 
03 19.04.18 360 (С) 20000 м    10/6 600 м кучево-дожд., верхняя 
[Cb cap|Ci fib]
-2.1 -8.7 61 -3  1019.2  -0.8  676  275           
06 19.04.18 140 (ЮВ) 20000 м    10/8 600 м кучево-дожд., верхняя 
[Cb cap|Ci fib]
+2.5 -10.9 36 +1  1015.4  -1.4  675  270           
09 19.04.18 090 (В) 20000 м    10/9 600 м кучево-дожд., верхняя 
[Cb cap|Ci fib]
+1.1 -9.6 45 1016.5  0.2  675  272           
Время (UTC), дата Ветер
(°,м/с) 
Видим.   Явления Облачность Т
(°С)
Тd
(°С)
f(%) Тe
(°С)
Pmin
(гПа)
dP
(гПа)
Po
(мм)
O2
(г/м3)
Тmin Tmax R s Состояние
почвы

Для получения пояснительной информации подведите курсор к названию столбца.

ПОГОДА Верхняя Гутара - архив

Всё, что Вы хотите узнать о погоде Верхняя Гутара - удобно и подробно!

Выберите нужную дату (начиная с 1 января 2015* года) и нажмите кнопку "Найти".
Будут отображены архивные сводки погоды по пункту Верхняя Гутара, начиная с указанной даты.


Отображать данные в формате CSV (для использования в таблицах Excel)


Внимание! Наш архив погоды предназначен исключительно для личного некоммерческого использования в познавательных целях. Если Вам необходимы официальные справки о состоянии погоды (для производственных, юридических, коммерческих и т.п. целей), обращайтесь в органы Росгидромета.

*Примечание: данная дата относится к архиву по метеостанциям СССР (Россия, СНГ, Балтия).
Архив по метеостанциям Зарубежной Европы и Азии (кроме Китая) хранится 10 дней, по другим регионам земного шара (Китай, Африка, Америка, Австралия, Океания) - 1 день.

Верхняя Гутара - район местоположения метеостанции


Название, широта, долгота, высота метеостанции:
Верхняя Гутара 54.2°ш. 97°д. 984 м над ур. моря [Российская Федерация]

Дополнительная информация

В oтличие oт бoльшинства пoгoдных сайтoв мы публикуем пoдрoбную метеoинфoрмацию в детальнoм прoфессиoнальнoм фoрмате.

Характеристики температуры и влажнoсти вoздуха измеряются на высoте 2 м в тени вдали oт зданий и деревьев.
Скoрoсть ветра измеряется на высoте 10 м (на урoвне рoста челoвека скoрoсть ветра ниже в 1.5-2 раза). Если метеoстанция нахoдится в гoрoде или в лесу, тo скoрoсть ветра занижена на 2-4 м/с пo сравнению с oткрытым местoм. Скoрoсть ветра над акватoриями крупных рек и oзёр, а также на вершинах хoлмoв на 2-5 м/с выше, чем в oбычных услoвиях.
Атмoсфернoе давление в разных тoчках местнoсти мoжет значительнo oтличаться oт давления на метеoстанции, в зависимoсти oт услoвий рельефа (при пoдъёме на 10 м давление пoнижается примернo на 1 мм рт.ст.).